Time,TemperatureF,DewpointF,PressureIn,WindDirection,WindDirectionDegrees,WindSpeedMPH,WindSpeedGustMPH,Humidity,HourlyPrecipIn,Conditions,Clouds,dailyrainin,SoftwareType,DateUTC
2013-09-22 00:01:00,81.8,57.7,29.60,WSW,250,0.0,0.0,44,0.00,,,0.00,WeatherCatV1.21B27,2013-09-22 07:01:00,
2013-09-22 00:06:00,81.7,57.6,29.60,WSW,252,2.0,2.0,44,0.00,,,0.00,WeatherCatV1.21B27,2013-09-22 07:06:00,
2013-09-22 00:11:00,81.5,58.1,29.59,WSW,254,0.0,1.0,45,0.00,,,0.00,WeatherCatV1.21B27,2013-09-22 07:11:00,
2013-09-22 00:16:00,81.3,57.9,29.59,WSW,254,0.0,0.0,45,0.00,,,0.00,WeatherCatV1.21B27,2013-09-22 07:16:00,
2013-09-22 00:21:00,81.0,58.2,29.59,WSW,254,0.0,0.0,46,0.00,,,0.00,WeatherCatV1.21B27,2013-09-22 07:21:00,
2013-09-22 00:26:00,80.6,57.9,29.59,WSW,254,0.0,0.0,46,0.00,,,0.00,WeatherCatV1.21B27,2013-09-22 07:26:00,
2013-09-22 00:31:00,80.0,57.3,29.59,WSW,254,0.0,0.0,46,0.00,,,0.00,WeatherCatV1.21B27,2013-09-22 07:31:00,
2013-09-22 00:36:00,79.6,57.6,29.59,WSW,254,2.0,2.0,47,0.00,,,0.00,WeatherCatV1.21B27,2013-09-22 07:36:00,
2013-09-22 00:41:00,79.2,57.8,29.59,WSW,254,0.0,0.0,48,0.00,,,0.00,WeatherCatV1.21B27,2013-09-22 07:41:00,
2013-09-22 00:46:00,79.2,57.8,29.59,WSW,254,0.0,0.0,48,0.00,,,0.00,WeatherCatV1.21B27,2013-09-22 07:46:00,
2013-09-22 00:51:00,79.0,57.6,29.59,WSW,254,0.0,0.0,48,0.00,,,0.00,WeatherCatV1.21B27,2013-09-22 07:51:00,
2013-09-22 00:56:00,78.8,57.4,29.59,WSW,254,0.0,0.0,48,0.00,,,0.00,WeatherCatV1.21B27,2013-09-22 07:56:00,
2013-09-22 01:01:00,78.8,56.8,29.59,WSW,255,1.0,1.0,47,0.00,,,0.00,WeatherCatV1.21B27,2013-09-22 08:01:00,
2013-09-22 01:06:00,78.9,57.5,29.59,NNE,24,1.0,2.0,48,0.00,,,0.00,WeatherCatV1.21B27,2013-09-22 08:06:00,
2013-09-22 01:11:00,79.0,57.6,29.59,NNE,24,0.0,0.0,48,0.00,,,0.00,WeatherCatV1.21B27,2013-09-22 08:11:00,
2013-09-22 01:16:00,78.8,57.4,29.59,NNE,24,0.0,0.0,48,0.00,,,0.00,WeatherCatV1.21B27,2013-09-22 08:16:00,
2013-09-22 01:21:00,78.5,57.2,29.59,NNE,24,0.0,0.0,48,0.00,,,0.00,WeatherCatV1.21B27,2013-09-22 08:21:00,
2013-09-22 01:26:00,78.3,57.5,29.59,NNE,24,0.0,0.0,49,0.00,,,0.00,WeatherCatV1.21B27,2013-09-22 08:26:00,
2013-09-22 01:31:00,78.3,57.5,29.59,NNE,24,0.0,1.0,49,0.00,,,0.00,WeatherCatV1.21B27,2013-09-22 08:31:00,
2013-09-22 01:36:00,78.3,58.1,29.59,NNE,24,0.0,2.0,50,0.00,,,0.00,WeatherCatV1.21B27,2013-09-22 08:36:00,
2013-09-22 01:41:00,78.3,58.1,29.59,NNE,24,0.0,0.0,50,0.00,,,0.00,WeatherCatV1.21B27,2013-09-22 08:41:00,
2013-09-22 01:46:00,78.2,58.0,29.59,NNE,24,0.0,0.0,50,0.00,,,0.00,WeatherCatV1.21B27,2013-09-22 08:46:00,
2013-09-22 01:51:00,77.9,57.7,29.59,NNE,24,0.0,1.0,50,0.00,,,0.00,WeatherCatV1.21B27,2013-09-22 08:51:00,
2013-09-22 01:56:00,77.6,57.5,29.59,NNE,24,0.0,1.0,50,0.00,,,0.00,WeatherCatV1.21B27,2013-09-22 08:56:00,
2013-09-22 02:01:00,77.5,57.9,29.59,NNE,24,1.0,2.0,51,0.00,,,0.00,WeatherCatV1.21B27,2013-09-22 09:01:00,
2013-09-22 02:06:00,77.5,57.9,29.59,NNE,25,1.0,2.0,51,0.00,,,0.00,WeatherCatV1.21B27,2013-09-22 09:06:00,
2013-09-22 02:11:00,77.6,58.0,29.59,NNE,27,0.0,2.0,51,0.00,,,0.00,WeatherCatV1.21B27,2013-09-22 09:11:00,
2013-09-22 02:16:00,77.7,58.1,29.59,NNE,27,2.0,2.0,51,0.00,,,0.00,WeatherCatV1.21B27,2013-09-22 09:16:00,
2013-09-22 02:21:00,77.9,57.7,29.59,SSE,154,2.0,3.0,50,0.00,,,0.00,WeatherCatV1.21B27,2013-09-22 09:21:00,
2013-09-22 02:26:00,78.0,57.8,29.59,SE,146,1.0,2.0,50,0.00,,,0.00,WeatherCatV1.21B27,2013-09-22 09:26:00,
2013-09-22 02:31:00,77.9,57.2,29.59,SE,146,0.0,1.0,49,0.00,,,0.00,WeatherCatV1.21B27,2013-09-22 09:31:00,
2013-09-22 02:36:00,77.8,57.7,29.58,SE,146,0.0,1.0,50,0.00,,,0.00,WeatherCatV1.21B27,2013-09-22 09:36:00,
2013-09-22 02:41:00,77.7,57.6,29.58,SE,146,0.0,0.0,50,0.00,,,0.00,WeatherCatV1.21B27,2013-09-22 09:41:00,
2013-09-22 02:46:00,77.7,57.6,29.58,SE,146,0.0,0.0,50,0.00,,,0.00,WeatherCatV1.21B27,2013-09-22 09:46:00,
2013-09-22 02:51:00,77.6,57.5,29.58,SE,146,1.0,1.0,50,0.00,,,0.00,WeatherCatV1.21B27,2013-09-22 09:51:00,
2013-09-22 02:56:00,77.7,57.6,29.57,SE,146,0.0,1.0,50,0.00,,,0.00,WeatherCatV1.21B27,2013-09-22 09:56:00,
2013-09-22 03:01:00,77.8,57.7,29.58,SE,146,1.0,1.0,50,0.00,,,0.00,WeatherCatV1.21B27,2013-09-22 10:01:00,
2013-09-22 03:06:00,77.8,57.7,29.58,SE,146,0.0,1.0,50,0.00,,,0.00,WeatherCatV1.21B27,2013-09-22 10:06:00,
2013-09-22 03:11:00,77.8,57.7,29.57,SE,146,0.0,0.0,50,0.00,,,0.00,WeatherCatV1.21B27,2013-09-22 10:11:00,
2013-09-22 03:16:00,77.6,57.5,29.57,SE,146,0.0,0.0,50,0.00,,,0.00,WeatherCatV1.21B27,2013-09-22 10:16:00,
2013-09-22 03:21:00,77.5,57.9,29.58,SE,146,0.0,0.0,51,0.00,,,0.00,WeatherCatV1.21B27,2013-09-22 10:21:00,
2013-09-22 03:26:00,77.3,57.7,29.58,SE,146,0.0,0.0,51,0.00,,,0.00,WeatherCatV1.21B27,2013-09-22 10:26:00,
2013-09-22 03:31:00,77.1,57.6,29.57,SE,146,0.0,0.0,51,0.00,,,0.00,WeatherCatV1.21B27,2013-09-22 10:31:00,
2013-09-22 03:36:00,76.8,57.8,29.58,SE,146,0.0,0.0,52,0.00,,,0.00,WeatherCatV1.21B27,2013-09-22 10:36:00,
2013-09-22 03:41:00,76.7,58.3,29.58,SE,146,0.0,0.0,53,0.00,,,0.00,WeatherCatV1.21B27,2013-09-22 10:41:00,
2013-09-22 03:46:00,76.5,58.1,29.58,SE,146,0.0,0.0,53,0.00,,,0.00,WeatherCatV1.21B27,2013-09-22 10:46:00,
2013-09-22 03:51:00,76.3,57.9,29.58,SE,146,0.0,0.0,53,0.00,,,0.00,WeatherCatV1.21B27,2013-09-22 10:51:00,
2013-09-22 03:56:00,76.2,58.3,29.57,SE,146,0.0,1.0,54,0.00,,,0.00,WeatherCatV1.21B27,2013-09-22 10:56:00,
2013-09-22 04:01:00,76.4,58.0,29.57,SE,146,0.0,0.0,53,0.00,,,0.00,WeatherCatV1.21B27,2013-09-22 11:01:00,
2013-09-22 04:06:00,76.3,57.9,29.57,SE,146,0.0,0.0,53,0.00,,,0.00,WeatherCatV1.21B27,2013-09-22 11:06:00,
2013-09-22 04:11:00,76.1,57.7,29.57,SE,146,0.0,0.0,53,0.00,,,0.00,WeatherCatV1.21B27,2013-09-22 11:11:00,
2013-09-22 04:16:00,76.3,58.4,29.57,SE,146,1.0,2.0,54,0.00,,,0.00,WeatherCatV1.21B27,2013-09-22 11:16:00,
2013-09-22 04:21:00,76.5,58.1,29.57,SE,146,0.0,1.0,53,0.00,,,0.00,WeatherCatV1.21B27,2013-09-22 11:21:00,
2013-09-22 04:26:00,76.3,58.4,29.57,SE,146,0.0,2.0,54,0.00,,,0.00,WeatherCatV1.21B27,2013-09-22 11:26:00,
2013-09-22 04:31:00,76.2,58.3,29.57,SE,146,0.0,0.0,54,0.00,,,0.00,WeatherCatV1.21B27,2013-09-22 11:31:00,
2013-09-22 04:36:00,76.1,58.2,29.57,SE,146,0.0,0.0,54,0.00,,,0.00,WeatherCatV1.21B27,2013-09-22 11:36:00,
2013-09-22 04:41:00,75.8,58.0,29.57,SE,146,0.0,1.0,54,0.00,,,0.00,WeatherCatV1.21B27,2013-09-22 11:41:00,
2013-09-22 04:46:00,75.6,58.3,29.57,SSW,213,2.0,3.0,55,0.00,,,0.00,WeatherCatV1.21B27,2013-09-22 11:46:00,
2013-09-22 04:51:00,75.6,58.3,29.57,SSW,213,0.0,2.0,55,0.00,,,0.00,WeatherCatV1.21B27,2013-09-22 11:51:00,
2013-09-22 04:56:00,75.6,58.3,29.57,SSW,213,0.0,1.0,55,0.00,,,0.00,WeatherCatV1.21B27,2013-09-22 11:56:00,
2013-09-22 05:01:00,75.5,58.2,29.57,SSW,213,1.0,1.0,55,0.00,,,0.00,WeatherCatV1.21B27,2013-09-22 12:01:00,
2013-09-22 05:06:00,75.7,58.9,29.58,SSW,213,1.0,2.0,56,0.00,,,0.00,WeatherCatV1.21B27,2013-09-22 12:06:00,
2013-09-22 05:11:00,76.4,58.5,29.58,SSW,213,0.0,2.0,54,0.00,,,0.00,WeatherCatV1.21B27,2013-09-22 12:11:00,
2013-09-22 05:16:00,76.2,58.3,29.58,SW,220,1.0,4.0,54,0.00,,,0.00,WeatherCatV1.21B27,2013-09-22 12:16:00,
2013-09-22 05:21:00,76.0,58.7,29.58,SW,220,0.0,0.0,55,0.00,,,0.00,WeatherCatV1.21B27,2013-09-22 12:21:00,
2013-09-22 05:26:00,75.7,58.4,29.58,SW,220,0.0,0.0,55,0.00,,,0.00,WeatherCatV1.21B27,2013-09-22 12:26:00,
2013-09-22 05:31:00,75.5,58.2,29.58,SW,220,0.0,0.0,55,0.00,,,0.00,WeatherCatV1.21B27,2013-09-22 12:31:00,
2013-09-22 05:36:00,75.3,58.5,29.58,SW,220,0.0,0.0,56,0.00,,,0.00,WeatherCatV1.21B27,2013-09-22 12:36:00,
2013-09-22 05:41:00,75.1,58.3,29.58,SW,220,0.0,0.0,56,0.00,,,0.00,WeatherCatV1.21B27,2013-09-22 12:41:00,
2013-09-22 05:46:00,74.8,58.5,29.58,SW,220,0.0,0.0,57,0.00,,,0.00,WeatherCatV1.21B27,2013-09-22 12:46:00,
2013-09-22 05:51:00,74.6,58.3,29.58,SW,220,0.0,0.0,57,0.00,,,0.00,WeatherCatV1.21B27,2013-09-22 12:51:00,
2013-09-22 05:56:00,74.4,58.6,29.58,SW,220,0.0,0.0,58,0.00,,,0.00,WeatherCatV1.21B27,2013-09-22 12:56:00,
2013-09-22 06:01:00,74.1,58.4,29.58,SW,220,0.0,0.0,58,0.00,,,0.00,WeatherCatV1.21B27,2013-09-22 13:01:00,
2013-09-22 06:06:00,73.9,58.7,29.58,SW,220,0.0,1.0,59,0.00,,,0.00,WeatherCatV1.21B27,2013-09-22 13:06:00,
2013-09-22 06:11:00,73.9,58.7,29.58,SW,220,1.0,1.0,59,0.00,,,0.00,WeatherCatV1.21B27,2013-09-22 13:11:00,
2013-09-22 06:16:00,73.9,58.7,29.58,SW,220,0.0,0.0,59,0.00,,,0.00,WeatherCatV1.21B27,2013-09-22 13:16:00,
2013-09-22 06:21:00,73.7,58.5,29.58,SW,220,0.0,1.0,59,0.00,,,0.00,WeatherCatV1.21B27,2013-09-22 13:21:00,
2013-09-22 06:26:00,73.7,58.5,29.58,SW,220,0.0,3.0,59,0.00,,,0.00,WeatherCatV1.21B27,2013-09-22 13:26:00,
2013-09-22 06:31:00,73.7,58.9,29.58,SW,220,0.0,0.0,60,0.00,,,0.00,WeatherCatV1.21B27,2013-09-22 13:31:00,
2013-09-22 06:36:00,73.7,58.9,29.58,SW,220,0.0,0.0,60,0.00,,,0.00,WeatherCatV1.21B27,2013-09-22 13:36:00,
2013-09-22 06:41:00,73.7,58.9,29.59,South,191,2.0,5.0,60,0.00,,,0.00,WeatherCatV1.21B27,2013-09-22 13:41:00,
2013-09-22 06:46:00,73.9,58.7,29.59,SSE,167,0.0,2.0,59,0.00,,,0.00,WeatherCatV1.21B27,2013-09-22 13:46:00,
2013-09-22 06:51:00,74.2,58.9,29.59,SSE,167,0.0,1.0,59,0.00,,,0.00,WeatherCatV1.21B27,2013-09-22 13:51:00,
2013-09-22 06:56:00,74.2,58.9,29.59,SSE,167,0.0,0.0,59,0.00,,,0.00,WeatherCatV1.21B27,2013-09-22 13:56:00,
2013-09-22 07:01:00,74.3,58.5,29.60,SSE,168,0.0,0.0,58,0.00,,,0.00,WeatherCatV1.21B27,2013-09-22 14:01:00,
2013-09-22 07:06:00,74.3,58.5,29.60,SSE,168,0.0,0.0,58,0.00,,,0.00,WeatherCatV1.21B27,2013-09-22 14:06:00,
2013-09-22 07:11:00,74.3,59.0,29.59,SSE,168,0.0,0.0,59,0.00,,,0.00,WeatherCatV1.21B27,2013-09-22 14:11:00,
2013-09-22 07:16:00,74.4,59.1,29.60,SSE,168,0.0,0.0,59,0.00,,,0.00,WeatherCatV1.21B27,2013-09-22 14:16:00,
2013-09-22 07:21:00,74.3,59.0,29.60,SSE,168,0.0,0.0,59,0.00,,,0.00,WeatherCatV1.21B27,2013-09-22 14:21:00,
2013-09-22 07:26:00,74.3,59.0,29.60,SSE,168,0.0,0.0,59,0.00,,,0.00,WeatherCatV1.21B27,2013-09-22 14:26:00,
2013-09-22 07:31:00,74.4,59.1,29.60,SSE,168,0.0,0.0,59,0.00,,,0.00,WeatherCatV1.21B27,2013-09-22 14:31:00,
2013-09-22 07:36:00,74.4,59.1,29.60,SSE,168,0.0,0.0,59,0.00,,,0.00,WeatherCatV1.21B27,2013-09-22 14:36:00,
2013-09-22 07:41:00,75.5,60.6,29.60,South,175,5.0,7.0,60,0.00,,,0.00,WeatherCatV1.21B27,2013-09-22 14:41:00,
2013-09-22 07:46:00,76.8,61.8,29.60,SSE,165,4.0,5.0,60,0.00,,,0.00,WeatherCatV1.21B27,2013-09-22 14:46:00,
2013-09-22 07:51:00,78.3,62.3,29.60,SSE,162,4.0,8.0,58,0.00,,,0.00,WeatherCatV1.21B27,2013-09-22 14:51:00,
2013-09-22 07:56:00,79.1,62.5,29.60,SSE,161,1.0,5.0,57,0.00,,,0.00,WeatherCatV1.21B27,2013-09-22 14:56:00,
2013-09-22 08:01:00,80.0,62.4,29.60,SE,137,3.0,7.0,55,0.00,,,0.00,WeatherCatV1.21B27,2013-09-22 15:01:00,
2013-09-22 08:06:00,80.8,62.0,29.60,South,171,7.0,7.0,53,0.00,,,0.00,WeatherCatV1.21B27,2013-09-22 15:06:00,
2013-09-22 08:11:00,81.6,62.2,29.60,SSE,161,3.0,4.0,52,0.00,,,0.00,WeatherCatV1.21B27,2013-09-22 15:11:00,
2013-09-22 08:16:00,82.1,62.7,29.60,South,179,5.0,7.0,52,0.00,,,0.00,WeatherCatV1.21B27,2013-09-22 15:16:00,
2013-09-22 08:21:00,82.7,62.7,29.60,SSE,165,4.0,8.0,51,0.00,,,0.00,WeatherCatV1.21B27,2013-09-22 15:21:00,
2013-09-22 08:26:00,83.1,62.5,29.60,SSE,148,4.0,10.0,50,0.00,,,0.00,WeatherCatV1.21B27,2013-09-22 15:26:00,
2013-09-22 08:31:00,83.5,63.4,29.60,SW,229,2.0,5.0,51,0.00,,,0.00,WeatherCatV1.21B27,2013-09-22 15:31:00,
2013-09-22 08:36:00,83.9,62.7,29.60,NE,42,3.0,7.0,49,0.00,,,0.00,WeatherCatV1.21B27,2013-09-22 15:36:00,
2013-09-22 08:41:00,84.1,62.8,29.60,SE,145,3.0,6.0,49,0.00,,,0.00,WeatherCatV1.21B27,2013-09-22 15:41:00,
2013-09-22 08:46:00,83.8,63.1,29.60,South,184,0.0,5.0,50,0.00,,,0.00,WeatherCatV1.21B27,2013-09-22 15:46:00,
2013-09-22 08:51:00,83.4,63.3,29.60,ESE,109,3.0,9.0,51,0.00,,,0.00,WeatherCatV1.21B27,2013-09-22 15:51:00,
2013-09-22 08:56:00,83.0,63.5,29.60,SSE,153,7.0,12.0,52,0.00,,,0.00,WeatherCatV1.21B27,2013-09-22 15:56:00,
2013-09-22 09:01:00,82.7,63.8,29.60,SSW,197,4.0,13.0,53,0.00,,,0.00,WeatherCatV1.21B27,2013-09-22 16:01:00,
2013-09-22 09:06:00,82.6,63.7,29.60,SSE,168,9.0,10.0,53,0.00,,,0.00,WeatherCatV1.21B27,2013-09-22 16:06:00,
2013-09-22 09:11:00,83.2,63.7,29.60,South,175,7.0,12.0,52,0.00,,,0.00,WeatherCatV1.21B27,2013-09-22 16:11:00,
2013-09-22 09:16:00,84.1,64.0,29.59,SSW,193,9.0,11.0,51,0.00,,,0.00,WeatherCatV1.21B27,2013-09-22 16:16:00,
2013-09-22 09:21:00,84.6,63.9,29.59,SSW,206,3.0,9.0,50,0.00,,,0.00,WeatherCatV1.21B27,2013-09-22 16:21:00,
2013-09-22 09:26:00,85.4,64.0,29.59,SSW,194,3.0,7.0,49,0.00,,,0.00,WeatherCatV1.21B27,2013-09-22 16:26:00,
2013-09-22 09:31:00,86.7,64.0,29.59,WSW,255,3.0,8.0,47,0.00,,,0.00,WeatherCatV1.21B27,2013-09-22 16:31:00,
2013-09-22 09:36:00,86.8,64.1,29.59,SSW,197,4.0,11.0,47,0.00,,,0.00,WeatherCatV1.21B27,2013-09-22 16:36:00,
2013-09-22 09:41:00,87.5,64.1,29.59,SSE,154,5.0,12.0,46,0.00,,,0.00,WeatherCatV1.21B27,2013-09-22 16:41:00,
2013-09-22 09:46:00,87.7,63.7,29.59,SSW,192,3.0,7.0,45,0.00,,,0.00,WeatherCatV1.21B27,2013-09-22 16:46:00,
2013-09-22 09:51:00,87.5,63.5,29.59,South,186,4.0,11.0,45,0.00,,,0.00,WeatherCatV1.21B27,2013-09-22 16:51:00,
2013-09-22 09:56:00,86.9,63.0,29.59,SE,138,5.0,6.0,45,0.00,,,0.00,WeatherCatV1.21B27,2013-09-22 16:56:00,
2013-09-22 10:01:00,86.5,63.2,29.59,SSE,155,3.0,6.0,46,0.00,,,0.00,WeatherCatV1.21B27,2013-09-22 17:01:00,
2013-09-22 10:06:00,87.3,63.3,29.58,SSW,211,5.0,7.0,45,0.00,,,0.00,WeatherCatV1.21B27,2013-09-22 17:06:00,
2013-09-22 10:11:00,88.0,62.7,29.58,SSW,206,13.0,14.0,43,0.00,,,0.00,WeatherCatV1.21B27,2013-09-22 17:11:00,
2013-09-22 10:16:00,87.7,62.4,29.58,WSW,244,5.0,10.0,43,0.00,,,0.00,WeatherCatV1.21B27,2013-09-22 17:16:00,
2013-09-22 10:21:00,88.8,62.7,29.58,South,190,8.0,11.0,42,0.00,,,0.00,WeatherCatV1.21B27,2013-09-22 17:21:00,
2013-09-22 10:26:00,88.8,62.7,29.58,South,171,14.0,17.0,42,0.00,,,0.00,WeatherCatV1.21B27,2013-09-22 17:26:00,
2013-09-22 10:31:00,88.6,62.5,29.57,South,175,9.0,9.0,42,0.00,,,0.00,WeatherCatV1.21B27,2013-09-22 17:31:00,
2013-09-22 10:36:00,89.3,62.5,29.57,South,179,15.0,15.0,41,0.00,,,0.00,WeatherCatV1.21B27,2013-09-22 17:36:00,
2013-09-22 10:41:00,89.4,62.6,29.57,South,188,7.0,17.0,41,0.00,,,0.00,WeatherCatV1.21B27,2013-09-22 17:41:00,
2013-09-22 10:46:00,89.7,62.1,29.56,ESE,121,7.0,13.0,40,0.00,,,0.00,WeatherCatV1.21B27,2013-09-22 17:46:00,
2013-09-22 10:51:00,89.7,62.1,29.57,SW,232,9.0,15.0,40,0.00,,,0.00,WeatherCatV1.21B27,2013-09-22 17:51:00,
2013-09-22 10:56:00,89.1,62.3,29.57,SSW,212,8.0,11.0,41,0.00,,,0.00,WeatherCatV1.21B27,2013-09-22 17:56:00,
2013-09-22 11:01:00,88.7,61.2,29.56,South,177,6.0,10.0,40,0.00,,,0.00,WeatherCatV1.21B27,2013-09-22 18:01:00,
2013-09-22 11:06:00,87.9,60.5,29.56,SW,219,11.0,19.0,40,0.00,,,0.00,WeatherCatV1.21B27,2013-09-22 18:06:00,
2013-09-22 11:11:00,88.0,60.6,29.56,WSW,243,3.0,10.0,40,0.00,,,0.00,WeatherCatV1.21B27,2013-09-22 18:11:00,
2013-09-22 11:16:00,87.9,59.1,29.56,SSE,165,8.0,13.0,38,0.00,,,0.00,WeatherCatV1.21B27,2013-09-22 18:16:00,
2013-09-22 11:21:00,88.5,59.6,29.55,South,187,5.0,14.0,38,0.00,,,0.00,WeatherCatV1.21B27,2013-09-22 18:21:00,
2013-09-22 11:26:00,88.8,59.1,29.56,South,178,12.0,13.0,37,0.00,,,0.00,WeatherCatV1.21B27,2013-09-22 18:26:00,
2013-09-22 11:31:00,89.5,59.7,29.56,West,265,6.0,6.0,37,0.00,,,0.00,WeatherCatV1.21B27,2013-09-22 18:31:00,
2013-09-22 11:36:00,90.4,60.5,29.55,WSW,242,11.0,13.0,37,0.00,,,0.00,WeatherCatV1.21B27,2013-09-22 18:36:00,
2013-09-22 11:41:00,90.4,59.8,29.56,SSW,194,7.0,14.0,36,0.00,,,0.00,WeatherCatV1.21B27,2013-09-22 18:41:00,
2013-09-22 11:46:00,90.3,59.7,29.56,WSW,257,4.0,20.0,36,0.00,,,0.00,WeatherCatV1.21B27,2013-09-22 18:46:00,
2013-09-22 11:51:00,90.2,59.6,29.55,SW,214,7.0,20.0,36,0.00,,,0.00,WeatherCatV1.21B27,2013-09-22 18:51:00,
2013-09-22 11:56:00,90.4,59.0,29.56,SSE,163,15.0,20.0,35,0.00,,,0.00,WeatherCatV1.21B27,2013-09-22 18:56:00,
2013-09-22 12:01:00,90.4,59.0,29.55,SSE,163,12.0,22.0,35,0.00,,,0.00,WeatherCatV1.21B27,2013-09-22 19:01:00,
2013-09-22 12:06:00,90.6,58.3,29.55,South,175,7.0,13.0,34,0.00,,,0.00,WeatherCatV1.21B27,2013-09-22 19:06:00,
2013-09-22 12:11:00,90.7,59.2,29.55,SSW,197,13.0,14.0,35,0.00,,,0.00,WeatherCatV1.21B27,2013-09-22 19:11:00,
2013-09-22 12:16:00,90.5,58.2,29.55,WSW,248,6.0,9.0,34,0.00,,,0.00,WeatherCatV1.21B27,2013-09-22 19:16:00,
2013-09-22 12:21:00,90.7,57.6,29.54,South,174,13.0,16.0,33,0.00,,,0.00,WeatherCatV1.21B27,2013-09-22 19:21:00,
2013-09-22 12:26:00,90.6,58.3,29.55,SW,219,10.0,16.0,34,0.00,,,0.00,WeatherCatV1.21B27,2013-09-22 19:26:00,
2013-09-22 12:31:00,90.7,57.6,29.55,SSW,192,5.0,15.0,33,0.00,,,0.00,WeatherCatV1.21B27,2013-09-22 19:31:00,
2013-09-22 12:36:00,90.9,56.9,29.55,South,190,15.0,25.0,32,0.00,,,0.00,WeatherCatV1.21B27,2013-09-22 19:36:00,
2013-09-22 12:41:00,91.0,57.8,29.54,SSE,155,11.0,22.0,33,0.00,,,0.00,WeatherCatV1.21B27,2013-09-22 19:41:00,
2013-09-22 12:46:00,91.1,57.9,29.54,South,190,6.0,17.0,33,0.00,,,0.00,WeatherCatV1.21B27,2013-09-22 19:46:00,
2013-09-22 12:51:00,90.9,56.0,29.54,West,259,8.0,13.0,31,0.00,,,0.00,WeatherCatV1.21B27,2013-09-22 19:51:00,
2013-09-22 12:56:00,91.3,55.5,29.53,West,262,12.0,22.0,30,0.00,,,0.00,WeatherCatV1.21B27,2013-09-22 19:56:00,
2013-09-22 13:01:00,91.3,55.5,29.53,SSW,207,2.0,13.0,30,0.00,,,0.00,WeatherCatV1.21B27,2013-09-22 20:01:00,
2013-09-22 13:06:00,91.6,55.7,29.53,South,185,7.0,16.0,30,0.00,,,0.00,WeatherCatV1.21B27,2013-09-22 20:06:00,
2013-09-22 13:11:00,91.0,56.1,29.53,NW,307,8.0,13.0,31,0.00,,,0.00,WeatherCatV1.21B27,2013-09-22 20:11:00,
2013-09-22 13:16:00,91.1,56.2,29.53,SW,216,10.0,14.0,31,0.00,,,0.00,WeatherCatV1.21B27,2013-09-22 20:16:00,
2013-09-22 13:21:00,91.5,56.5,29.53,SSW,194,8.0,17.0,31,0.00,,,0.00,WeatherCatV1.21B27,2013-09-22 20:21:00,
2013-09-22 13:26:00,91.1,57.1,29.53,WSW,245,3.0,11.0,32,0.00,,,0.00,WeatherCatV1.21B27,2013-09-22 20:26:00,
2013-09-22 13:31:00,91.4,56.5,29.52,NW,317,5.0,13.0,31,0.00,,,0.00,WeatherCatV1.21B27,2013-09-22 20:31:00,
2013-09-22 13:36:00,91.7,56.7,29.52,WSW,248,8.0,9.0,31,0.00,,,0.00,WeatherCatV1.21B27,2013-09-22 20:36:00,
2013-09-22 13:41:00,91.4,56.5,29.52,South,170,6.0,17.0,31,0.00,,,0.00,WeatherCatV1.21B27,2013-09-22 20:41:00,
2013-09-22 13:46:00,91.7,56.7,29.53,SSW,196,8.0,16.0,31,0.00,,,0.00,WeatherCatV1.21B27,2013-09-22 20:46:00,
2013-09-22 13:51:00,91.5,56.5,29.53,South,190,17.0,23.0,31,0.00,,,0.00,WeatherCatV1.21B27,2013-09-22 20:51:00,
2013-09-22 13:56:00,91.1,55.3,29.52,WSW,257,8.0,12.0,30,0.00,,,0.00,WeatherCatV1.21B27,2013-09-22 20:56:00,
2013-09-22 14:01:00,91.3,55.5,29.52,SSE,159,12.0,18.0,30,0.00,,,0.00,WeatherCatV1.21B27,2013-09-22 21:01:00,
2013-09-22 14:06:00,90.2,56.3,29.52,SSW,207,4.0,13.0,32,0.00,,,0.00,WeatherCatV1.21B27,2013-09-22 21:06:00,
2013-09-22 14:11:00,90.5,55.7,29.52,SW,232,4.0,11.0,31,0.00,,,0.00,WeatherCatV1.21B27,2013-09-22 21:11:00,
2013-09-22 14:16:00,91.5,54.7,29.52,WSW,250,11.0,20.0,29,0.00,,,0.00,WeatherCatV1.21B27,2013-09-22 21:16:00,
2013-09-22 14:21:00,91.5,54.7,29.52,WSW,238,9.0,15.0,29,0.00,,,0.00,WeatherCatV1.21B27,2013-09-22 21:21:00,
2013-09-22 14:26:00,91.6,53.8,29.52,SSE,155,12.0,16.0,28,0.00,,,0.00,WeatherCatV1.21B27,2013-09-22 21:26:00,
2013-09-22 14:31:00,91.1,54.4,29.52,SSW,210,12.0,12.0,29,0.00,,,0.00,WeatherCatV1.21B27,2013-09-22 21:31:00,
2013-09-22 14:36:00,91.3,53.6,29.52,WSW,238,7.0,17.0,28,0.00,,,0.00,WeatherCatV1.21B27,2013-09-22 21:36:00,
2013-09-22 14:41:00,91.1,53.4,29.52,West,266,13.0,22.0,28,0.00,,,0.00,WeatherCatV1.21B27,2013-09-22 21:41:00,
2013-09-22 14:46:00,90.9,54.2,29.52,ESE,117,5.0,10.0,29,0.00,,,0.00,WeatherCatV1.21B27,2013-09-22 21:46:00,
2013-09-22 14:51:00,91.3,54.5,29.52,SW,215,12.0,15.0,29,0.00,,,0.00,WeatherCatV1.21B27,2013-09-22 21:51:00,
2013-09-22 14:56:00,91.6,52.8,29.52,SSW,196,7.0,14.0,27,0.00,,,0.00,WeatherCatV1.21B27,2013-09-22 21:56:00,
2013-09-22 15:01:00,91.6,51.8,29.52,South,170,7.0,18.0,26,0.00,,,0.00,WeatherCatV1.21B27,2013-09-22 22:01:00,
2013-09-22 15:06:00,91.4,51.7,29.52,SW,219,8.0,15.0,26,0.00,,,0.00,WeatherCatV1.21B27,2013-09-22 22:06:00,
2013-09-22 15:11:00,91.5,51.7,29.52,SSW,194,8.0,12.0,26,0.00,,,0.00,WeatherCatV1.21B27,2013-09-22 22:11:00,
2013-09-22 15:16:00,91.5,52.8,29.51,South,173,5.0,14.0,27,0.00,,,0.00,WeatherCatV1.21B27,2013-09-22 22:16:00,
2013-09-22 15:21:00,91.7,52.9,29.52,WSW,250,5.0,12.0,27,0.00,,,0.00,WeatherCatV1.21B27,2013-09-22 22:21:00,
2013-09-22 15:26:00,91.8,49.8,29.52,SW,223,3.0,12.0,24,0.00,,,0.00,WeatherCatV1.21B27,2013-09-22 22:26:00,
2013-09-22 15:31:00,91.7,48.6,29.52,SSW,198,7.0,12.0,23,0.00,,,0.00,WeatherCatV1.21B27,2013-09-22 22:31:00,
2013-09-22 15:36:00,91.3,48.3,29.52,SSW,197,6.0,12.0,23,0.00,,,0.00,WeatherCatV1.21B27,2013-09-22 22:36:00,
2013-09-22 15:41:00,91.0,49.2,29.52,SSW,201,9.0,18.0,24,0.00,,,0.00,WeatherCatV1.21B27,2013-09-22 22:41:00,
2013-09-22 15:46:00,90.9,46.8,29.52,SSE,166,11.0,21.0,22,0.00,,,0.00,WeatherCatV1.21B27,2013-09-22 22:46:00,
2013-09-22 15:51:00,91.3,48.3,29.52,SSW,209,5.0,15.0,23,0.00,,,0.00,WeatherCatV1.21B27,2013-09-22 22:51:00,
2013-09-22 15:56:00,91.5,47.2,29.52,SSW,207,5.0,12.0,22,0.00,,,0.00,WeatherCatV1.21B27,2013-09-22 22:56:00,
2013-09-22 16:01:00,91.1,48.1,29.52,South,180,5.0,12.0,23,0.00,,,0.00,WeatherCatV1.21B27,2013-09-22 23:01:00,
2013-09-22 16:06:00,91.1,46.9,29.52,WSW,238,11.0,18.0,22,0.00,,,0.00,WeatherCatV1.21B27,2013-09-22 23:06:00,
2013-09-22 16:11:00,90.9,46.8,29.52,West,259,9.0,17.0,22,0.00,,,0.00,WeatherCatV1.21B27,2013-09-22 23:11:00,
2013-09-22 16:16:00,90.6,47.7,29.53,WSW,243,4.0,19.0,23,0.00,,,0.00,WeatherCatV1.21B27,2013-09-22 23:16:00,
2013-09-22 16:21:00,90.4,47.5,29.53,SSW,202,10.0,17.0,23,0.00,,,0.00,WeatherCatV1.21B27,2013-09-22 23:21:00,
2013-09-22 16:26:00,90.2,47.3,29.53,South,170,7.0,15.0,23,0.00,,,0.00,WeatherCatV1.21B27,2013-09-22 23:26:00,
2013-09-22 16:31:00,90.2,47.3,29.52,WNW,282,8.0,10.0,23,0.00,,,0.00,WeatherCatV1.21B27,2013-09-22 23:31:00,
2013-09-22 16:36:00,90.5,47.6,29.53,SW,216,4.0,10.0,23,0.00,,,0.00,WeatherCatV1.21B27,2013-09-22 23:36:00,
2013-09-22 16:41:00,90.8,47.8,29.53,South,184,9.0,9.0,23,0.00,,,0.00,WeatherCatV1.21B27,2013-09-22 23:41:00,
2013-09-22 16:46:00,90.5,47.6,29.53,WSW,257,4.0,10.0,23,0.00,,,0.00,WeatherCatV1.21B27,2013-09-22 23:46:00,
2013-09-22 16:51:00,90.2,48.5,29.52,SW,214,5.0,12.0,24,0.00,,,0.00,WeatherCatV1.21B27,2013-09-22 23:51:00,
2013-09-22 16:56:00,90.1,48.4,29.53,SW,232,10.0,15.0,24,0.00,,,0.00,WeatherCatV1.21B27,2013-09-22 23:56:00,
2013-09-22 17:01:00,89.7,48.1,29.53,West,276,3.0,14.0,24,0.00,,,0.00,WeatherCatV1.21B27,2013-09-23 00:01:00,
2013-09-22 17:06:00,89.3,48.8,29.53,West,259,2.0,10.0,25,0.00,,,0.00,WeatherCatV1.21B27,2013-09-23 00:06:00,
2013-09-22 17:11:00,89.2,48.7,29.53,West,261,5.0,11.0,25,0.00,,,0.00,WeatherCatV1.21B27,2013-09-23 00:11:00,
2013-09-22 17:16:00,88.8,48.4,29.53,West,271,7.0,8.0,25,0.00,,,0.00,WeatherCatV1.21B27,2013-09-23 00:16:00,
2013-09-22 17:21:00,88.8,49.5,29.54,SW,234,10.0,13.0,26,0.00,,,0.00,WeatherCatV1.21B27,2013-09-23 00:21:00,
2013-09-22 17:26:00,88.3,49.0,29.54,SW,225,4.0,9.0,26,0.00,,,0.00,WeatherCatV1.21B27,2013-09-23 00:26:00,
2013-09-22 17:31:00,88.0,48.8,29.54,West,281,5.0,10.0,26,0.00,,,0.00,WeatherCatV1.21B27,2013-09-23 00:31:00,
2013-09-22 17:36:00,87.8,48.6,29.54,WSW,242,4.0,10.0,26,0.00,,,0.00,WeatherCatV1.21B27,2013-09-23 00:36:00,
2013-09-22 17:41:00,87.6,48.4,29.54,WNW,295,8.0,9.0,26,0.00,,,0.00,WeatherCatV1.21B27,2013-09-23 00:41:00,
2013-09-22 17:46:00,87.4,48.3,29.54,West,262,8.0,12.0,26,0.00,,,0.00,WeatherCatV1.21B27,2013-09-23 00:46:00,
2013-09-22 17:51:00,87.1,48.0,29.55,West,280,9.0,9.0,26,0.00,,,0.00,WeatherCatV1.21B27,2013-09-23 00:51:00,
2013-09-22 17:56:00,86.7,48.7,29.55,SSW,213,7.0,8.0,27,0.00,,,0.00,WeatherCatV1.21B27,2013-09-23 00:56:00,
2013-09-22 18:00:00,86.2,48.3,29.55,WSW,244,0.0,8.0,27,0.00,,,0.00,WeatherCatV1.21B27,2013-09-23 01:00:00,
2013-09-22 18:05:00,85.8,47.9,29.55,West,281,7.0,10.0,27,0.00,,,0.00,WeatherCatV1.21B27,2013-09-23 01:05:00,
2013-09-22 18:10:00,85.5,47.7,29.55,SW,236,3.0,8.0,27,0.00,,,0.00,WeatherCatV1.21B27,2013-09-23 01:10:00,
2013-09-22 18:15:00,85.2,45.4,29.55,West,271,4.0,7.0,25,0.00,,,0.00,WeatherCatV1.21B27,2013-09-23 01:15:00,
2013-09-22 18:20:00,84.8,45.0,29.55,West,274,7.0,11.0,25,0.00,,,0.00,WeatherCatV1.21B27,2013-09-23 01:20:00,
2013-09-22 18:25:00,84.6,44.9,29.56,West,276,6.0,12.0,25,0.00,,,0.00,WeatherCatV1.21B27,2013-09-23 01:25:00,
2013-09-22 18:30:00,84.3,44.6,29.56,West,269,7.0,12.0,25,0.00,,,0.00,WeatherCatV1.21B27,2013-09-23 01:30:00,
2013-09-22 18:35:00,84.1,43.4,29.56,West,265,6.0,12.0,24,0.00,,,0.00,WeatherCatV1.21B27,2013-09-23 01:35:00,
2013-09-22 18:40:00,83.8,42.0,29.57,WSW,254,4.0,11.0,23,0.00,,,0.00,WeatherCatV1.21B27,2013-09-23 01:40:00,
2013-09-22 18:45:00,83.6,41.9,29.57,West,263,6.0,11.0,23,0.00,,,0.00,WeatherCatV1.21B27,2013-09-23 01:45:00,
2013-09-22 18:50:00,83.4,41.7,29.57,WSW,247,9.0,16.0,23,0.00,,,0.00,WeatherCatV1.21B27,2013-09-23 01:50:00,
2013-09-22 18:55:00,83.3,40.5,29.57,West,267,5.0,9.0,22,0.00,,,0.00,WeatherCatV1.21B27,2013-09-23 01:55:00,
2013-09-22 19:00:00,83.2,39.2,29.58,West,277,4.0,6.0,21,0.00,,,0.00,WeatherCatV1.21B27,2013-09-23 02:00:00,
2013-09-22 19:05:00,83.0,39.0,29.58,West,281,3.0,4.0,21,0.00,,,0.00,WeatherCatV1.21B27,2013-09-23 02:05:00,
2013-09-22 19:10:00,82.9,38.9,29.58,West,278,7.0,9.0,21,0.00,,,0.00,WeatherCatV1.21B27,2013-09-23 02:10:00,
2013-09-22 19:15:00,82.8,38.8,29.59,West,269,5.0,8.0,21,0.00,,,0.00,WeatherCatV1.21B27,2013-09-23 02:15:00,
2013-09-22 19:20:00,82.7,38.8,29.59,NW,305,9.0,13.0,21,0.00,,,0.00,WeatherCatV1.21B27,2013-09-23 02:20:00,
2013-09-22 19:25:00,81.4,41.1,29.59,WNW,294,4.0,12.0,24,0.00,,,0.00,WeatherCatV1.21B27,2013-09-23 02:25:00,
2013-09-22 19:30:00,79.9,40.9,29.60,WNW,286,3.0,7.0,25,0.00,,,0.00,WeatherCatV1.21B27,2013-09-23 02:30:00,
2013-09-22 19:35:00,79.1,41.2,29.60,NNW,346,5.0,16.0,26,0.00,,,0.00,WeatherCatV1.21B27,2013-09-23 02:35:00,
2013-09-22 19:40:00,78.5,40.7,29.61,NW,306,6.0,10.0,26,0.00,,,0.00,WeatherCatV1.21B27,2013-09-23 02:40:00,
2013-09-22 19:45:00,78.1,40.4,29.61,NW,322,9.0,14.0,26,0.00,,,0.00,WeatherCatV1.21B27,2013-09-23 02:45:00,
2013-09-22 19:50:00,77.9,40.2,29.61,WNW,301,7.0,14.0,26,0.00,,,0.00,WeatherCatV1.21B27,2013-09-23 02:50:00,
2013-09-22 19:55:00,77.7,39.1,29.61,NW,317,5.0,14.0,25,0.00,,,0.00,WeatherCatV1.21B27,2013-09-23 02:55:00,
2013-09-22 20:00:00,77.6,37.9,29.62,West,272,10.0,13.0,24,0.00,,,0.00,WeatherCatV1.21B27,2013-09-23 03:00:00,
2013-09-22 20:05:00,77.6,37.9,29.62,West,259,10.0,15.0,24,0.00,,,0.00,WeatherCatV1.21B27,2013-09-23 03:05:00,
2013-09-22 20:10:00,77.4,37.8,29.62,North,355,9.0,11.0,24,0.00,,,0.00,WeatherCatV1.21B27,2013-09-23 03:10:00,
2013-09-22 20:15:00,77.3,37.7,29.63,NW,312,9.0,15.0,24,0.00,,,0.00,WeatherCatV1.21B27,2013-09-23 03:15:00,
2013-09-22 20:20:00,77.2,36.5,29.63,WNW,292,4.0,12.0,23,0.00,,,0.00,WeatherCatV1.21B27,2013-09-23 03:20:00,
2013-09-22 20:25:00,77.1,36.4,29.63,West,273,4.0,11.0,23,0.00,,,0.00,WeatherCatV1.21B27,2013-09-23 03:25:00,
2013-09-22 20:31:00,77.0,36.3,29.63,North,350,12.0,14.0,23,0.00,,,0.00,WeatherCatV1.21B27,2013-09-23 03:31:00,
2013-09-22 20:36:00,77.0,36.3,29.63,WNW,302,6.0,11.0,23,0.00,,,0.00,WeatherCatV1.21B27,2013-09-23 03:36:00,
2013-09-22 20:41:00,77.0,36.3,29.64,WNW,291,8.0,12.0,23,0.00,,,0.00,WeatherCatV1.21B27,2013-09-23 03:41:00,
2013-09-22 20:46:00,76.8,36.2,29.64,NNW,327,5.0,10.0,23,0.00,,,0.00,WeatherCatV1.21B27,2013-09-23 03:46:00,
2013-09-22 20:51:00,76.7,36.1,29.64,WNW,289,4.0,11.0,23,0.00,,,0.00,WeatherCatV1.21B27,2013-09-23 03:51:00,
2013-09-22 20:56:00,76.4,36.9,29.64,NW,319,8.0,12.0,24,0.00,,,0.00,WeatherCatV1.21B27,2013-09-23 03:56:00,
2013-09-22 21:01:00,76.3,36.8,29.64,NW,323,8.0,12.0,24,0.00,,,0.00,WeatherCatV1.21B27,2013-09-23 04:01:00,
2013-09-22 21:06:00,76.2,36.8,29.64,WNW,298,3.0,8.0,24,0.00,,,0.00,WeatherCatV1.21B27,2013-09-23 04:06:00,
2013-09-22 21:11:00,76.1,36.7,29.64,WNW,288,2.0,5.0,24,0.00,,,0.00,WeatherCatV1.21B27,2013-09-23 04:11:00,
2013-09-22 21:16:00,76.0,36.6,29.64,West,281,6.0,9.0,24,0.00,,,0.00,WeatherCatV1.21B27,2013-09-23 04:16:00,
2013-09-22 21:21:00,75.9,36.5,29.65,WNW,293,3.0,6.0,24,0.00,,,0.00,WeatherCatV1.21B27,2013-09-23 04:21:00,
2013-09-22 21:26:00,75.8,36.4,29.65,NNW,331,4.0,10.0,24,0.00,,,0.00,WeatherCatV1.21B27,2013-09-23 04:26:00,
2013-09-22 21:31:00,75.6,37.3,29.65,NW,310,4.0,10.0,25,0.00,,,0.00,WeatherCatV1.21B27,2013-09-23 04:31:00,
2013-09-22 21:36:00,75.5,37.2,29.65,NW,304,5.0,8.0,25,0.00,,,0.00,WeatherCatV1.21B27,2013-09-23 04:36:00,
2013-09-22 21:41:00,75.4,37.1,29.65,NW,324,6.0,10.0,25,0.00,,,0.00,WeatherCatV1.21B27,2013-09-23 04:41:00,
2013-09-22 21:46:00,75.1,36.9,29.65,NW,313,8.0,9.0,25,0.00,,,0.00,WeatherCatV1.21B27,2013-09-23 04:46:00,
2013-09-22 21:51:00,75.0,36.8,29.65,NNW,338,10.0,10.0,25,0.00,,,0.00,WeatherCatV1.21B27,2013-09-23 04:51:00,
2013-09-22 21:56:00,75.0,36.8,29.65,NW,305,5.0,12.0,25,0.00,,,0.00,WeatherCatV1.21B27,2013-09-23 04:56:00,
2013-09-22 22:01:00,74.9,36.7,29.65,NNW,338,4.0,12.0,25,0.00,,,0.00,WeatherCatV1.21B27,2013-09-23 05:01:00,
2013-09-22 22:06:00,74.7,36.5,29.65,NW,325,10.0,13.0,25,0.00,,,0.00,WeatherCatV1.21B27,2013-09-23 05:06:00,
2013-09-22 22:11:00,74.6,36.4,29.66,NNW,342,6.0,8.0,25,0.00,,,0.00,WeatherCatV1.21B27,2013-09-23 05:11:00,
2013-09-22 22:16:00,74.6,36.4,29.65,NW,310,7.0,10.0,25,0.00,,,0.00,WeatherCatV1.21B27,2013-09-23 05:16:00,
2013-09-22 22:21:00,74.5,36.4,29.66,WNW,283,4.0,7.0,25,0.00,,,0.00,WeatherCatV1.21B27,2013-09-23 05:21:00,
2013-09-22 22:26:00,74.4,36.3,29.66,WNW,295,3.0,7.0,25,0.00,,,0.00,WeatherCatV1.21B27,2013-09-23 05:26:00,
2013-09-22 22:31:00,74.4,36.3,29.66,WNW,296,6.0,6.0,25,0.00,,,0.00,WeatherCatV1.21B27,2013-09-23 05:31:00,
2013-09-22 22:36:00,74.3,36.2,29.66,NW,322,4.0,6.0,25,0.00,,,0.00,WeatherCatV1.21B27,2013-09-23 05:36:00,
2013-09-22 22:41:00,74.2,35.1,29.66,WNW,293,2.0,10.0,24,0.00,,,0.00,WeatherCatV1.21B27,2013-09-23 05:41:00,
2013-09-22 22:46:00,74.0,35.9,29.66,NW,312,4.0,6.0,25,0.00,,,0.00,WeatherCatV1.21B27,2013-09-23 05:46:00,
2013-09-22 22:51:00,74.0,35.9,29.66,WSW,242,4.0,7.0,25,0.00,,,0.00,WeatherCatV1.21B27,2013-09-23 05:51:00,
2013-09-22 22:56:00,73.7,35.7,29.67,WNW,288,4.0,6.0,25,0.00,,,0.00,WeatherCatV1.21B27,2013-09-23 05:56:00,
2013-09-22 23:01:00,73.6,35.6,29.66,NNW,343,10.0,10.0,25,0.00,,,0.00,WeatherCatV1.21B27,2013-09-23 06:01:00,
2013-09-22 23:06:00,73.5,35.5,29.66,West,280,5.0,9.0,25,0.00,,,0.00,WeatherCatV1.21B27,2013-09-23 06:06:00,
2013-09-22 23:11:00,73.4,35.4,29.67,WNW,287,3.0,7.0,25,0.00,,,0.00,WeatherCatV1.21B27,2013-09-23 06:11:00,
2013-09-22 23:16:00,73.4,34.4,29.67,West,279,4.0,5.0,24,0.00,,,0.00,WeatherCatV1.21B27,2013-09-23 06:16:00,
2013-09-22 23:21:00,73.3,34.3,29.67,NW,309,4.0,10.0,24,0.00,,,0.00,WeatherCatV1.21B27,2013-09-23 06:21:00,
2013-09-22 23:26:00,73.4,34.4,29.67,WNW,289,2.0,4.0,24,0.00,,,0.00,WeatherCatV1.21B27,2013-09-23 06:26:00,
2013-09-22 23:31:00,73.3,34.3,29.67,West,275,9.0,9.0,24,0.00,,,0.00,WeatherCatV1.21B27,2013-09-23 06:31:00,
2013-09-22 23:36:00,73.2,34.2,29.67,West,271,5.0,6.0,24,0.00,,,0.00,WeatherCatV1.21B27,2013-09-23 06:36:00,
2013-09-22 23:41:00,73.1,34.2,29.67,WNW,290,0.0,3.0,24,0.00,,,0.00,WeatherCatV1.21B27,2013-09-23 06:41:00,
2013-09-22 23:46:00,73.0,34.1,29.67,WNW,302,3.0,10.0,24,0.00,,,0.00,WeatherCatV1.21B27,2013-09-23 06:46:00,
2013-09-22 23:51:00,73.0,34.1,29.67,WNW,296,3.0,3.0,24,0.00,,,0.00,WeatherCatV1.21B27,2013-09-23 06:51:00,
2013-09-22 23:56:00,73.1,34.2,29.68,West,274,0.0,6.0,24,0.00,,,0.00,WeatherCatV1.21B27,2013-09-23 06:56:00,